Theta_e
330 330 332 330 331 332 333 334 335 336 337 339 340 339 338 338 338 338 338 339 339 338 338 337 336 335 334 334 335 335 335 335 334 334 333 331 332 336 342 343 346 346 345 346 346 346 345 345 344 343 342 341 340 339 338 338 337 336 334 334 333 333 332 331 331 331 331 330 330 330 330 330 330 330 330 329 329 328 328 328 328 327 327 327 327
331 332 331 330 330 330 332 332 334 335 336 337 338 339 339 338 336 336 337 336 337 337 339 337 337 337 336 336 336 337 337 337 336 335 335 332 332 334 341 344 346 346 345 346 346 346 346 346 345 344 343 342 341 341 339 339 338 336 335 334 334 333 333 332 332 331 331 331 330 330 330 330 330 330 330 329 329 328 328 328 328 327 327 327 327
332 331 331 330 329 329 330 331 332 333 336 336 336 337 337 337 337 336 336 335 336 337 338 337 337 337 338 338 338 338 338 338 338 337 336 334 332 333 334 342 346 345 345 345 346 347 347 346 346 345 344 343 342 341 341 340 339 338 337 336 336 335 333 333 332 331 331 331 331 330 330 330 330 330 330 329 329 329 328 328 328 328 328 327 327
330 330 329 329 328 328 329 329 329 331 334 335 336 337 336 336 336 337 336 336 336 336 336 336 336 336 337 337 337 337 337 337 337 337 338 337 333 333 335 337 345 346 345 344 344 346 347 347 346 346 345 344 343 343 342 341 340 339 338 337 336 336 334 333 333 332 332 331 331 330 330 330 330 330 330 330 329 329 329 329 328 328 328 327 327
330 331 332 329 329 328 329 330 329 330 331 333 334 335 336 335 335 336 335 334 333 333 335 335 334 335 335 336 336 335 336 336 336 336 336 337 336 333 334 336 341 346 346 344 343 345 346 347 347 346 346 345 344 343 342 342 341 340 339 338 337 335 335 334 333 333 332 332 332 331 330 330 330 330 330 330 330 330 329 329 329 329 328 328 327
332 330 329 330 330 330 330 330 331 333 332 333 332 332 333 333 333 332 334 333 330 330 330 330 331 330 331 332 332 333 334 334 335 335 335 336 337 334 333 334 338 343 345 345 343 343 345 346 346 346 346 346 345 344 343 343 342 341 340 339 338 337 335 335 335 333 333 332 332 332 331 331 330 330 330 330 330 330 330 329 329 329 328 328 327
333 332 332 332 332 331 331 332 332 333 332 332 333 332 332 331 333 331 330 330 330 330 330 327 326 326 327 328 328 327 329 331 332 333 333 334 336 335 334 334 335 339 342 342 343 343 343 344 346 346 347 346 346 346 344 344 342 342 341 340 339 338 337 337 336 335 334 333 333 332 332 332 332 331 331 331 330 330 330 330 330 329 329 329 328
333 333 333 332 332 330 332 331 331 332 333 332 333 333 332 329 331 332 331 330 330 330 329 328 327 328 328 328 328 330 329 326 326 328 330 332 334 335 335 333 334 336 339 340 341 342 343 343 344 345 346 346 346 346 345 344 344 343 342 341 341 340 339 338 337 336 336 334 334 333 333 332 332 332 331 331 331 331 330 330 330 330 329 329 329
335 335 331 330 331 331 331 332 333 332 331 331 331 333 331 331 330 332 331 330 330 330 331 330 329 329 329 330 330 331 330 330 328 326 324 327 331 333 334 333 333 336 338 338 338 339 341 343 343 344 344 345 345 346 346 345 345 344 343 343 343 342 341 339 338 337 336 335 335 334 334 333 332 332 332 331 331 331 331 330 330 330 330 329 329
332 333 334 334 332 332 332 332 335 334 332 331 330 330 330 329 329 329 330 330 330 330 329 330 330 330 331 330 331 331 331 331 331 333 330 328 327 330 334 335 334 333 335 336 336 337 337 339 342 343 343 344 344 344 345 346 345 345 345 344 343 342 342 341 339 338 338 336 336 335 334 334 333 333 332 332 332 332 331 331 330 330 330 329 329
332 333 333 333 333 332 332 333 333 331 331 330 332 329 327 323 327 327 327 330 331 330 331 331 331 331 330 331 332 332 333 332 332 332 331 330 330 329 328 334 335 334 334 334 335 335 335 335 337 340 342 343 342 343 344 345 345 346 346 345 344 344 343 343 341 340 339 338 337 336 335 335 334 334 334 333 332 332 332 332 332 331 330 330 329
329 328 327 328 329 330 331 331 332 331 330 328 331 328 326 326 327 326 328 331 332 332 331 330 329 329 329 329 330 330 330 331 331 331 332 331 330 330 329 328 333 335 334 334 334 334 334 334 335 335 338 340 341 342 342 343 344 344 346 346 346 345 344 344 342 341 340 339 338 338 337 336 335 335 334 334 334 333 333 332 332 331 331 331 330
328 326 325 326 325 325 326 327 330 334 333 332 332 330 329 327 329 332 332 331 330 330 330 329 325 325 325 326 328 328 329 330 329 330 330 332 331 329 329 328 329 332 334 335 334 334 334 334 334 334 334 337 338 340 341 342 342 343 345 346 346 346 346 345 344 342 341 341 340 339 338 337 337 336 336 336 335 335 334 333 333 332 332 331 331
328 327 325 324 323 323 322 322 327 330 333 335 334 334 331 331 331 329 332 332 330 330 331 329 324 323 322 323 325 327 328 328 327 328 329 330 331 330 330 326 325 327 331 334 334 333 333 334 334 333 333 334 335 337 339 341 341 341 343 345 345 346 346 346 345 344 342 341 341 340 340 339 338 337 337 337 336 336 335 334 334 334 333 333 332
323 329 324 324 323 322 321 322 326 329 330 330 330 329 329 329 329 328 327 329 330 332 330 329 325 325 325 322 317 318 323 325 323 326 328 328 329 329 329 328 327 326 328 331 333 334 334 334 334 333 333 333 334 335 336 336 338 339 341 342 344 345 346 346 346 346 345 343 341 341 341 340 339 339 338 338 337 337 336 335 335 335 334 334 333
320 322 325 323 324 322 322 325 326 328 329 330 329 329 328 328 328 328 327 325 327 328 332 329 329 326 320 320 319 319 316 320 321 326 326 326 326 327 328 328 329 329 327 326 328 333 335 335 334 335 334 334 334 334 334 335 335 337 339 341 341 342 344 345 345 346 346 345 343 342 342 341 341 340 340 339 338 337 337 337 336 336 335 335 334
319 320 326 322 322 322 322 323 324 325 327 327 326 326 326 327 328 327 326 325 325 327 328 329 328 329 324 319 317 316 318 320 322 323 324 326 326 327 328 328 328 328 327 325 326 328 332 333 336 336 336 335 334 334 334 334 335 336 337 339 340 341 341 343 344 345 345 346 346 345 344 343 343 342 341 340 339 339 339 338 338 337 336 335 334
317 319 322 325 321 321 322 322 322 323 323 322 322 323 323 324 325 325 323 325 325 322 322 326 328 327 327 327 323 318 317 321 320 316 325 326 327 328 328 328 328 329 332 330 328 326 326 329 333 335 336 336 335 334 334 334 335 335 336 336 338 340 341 342 343 344 344 345 346 346 346 345 344 344 343 342 340 340 340 339 338 337 336 335 335
316 317 319 321 319 320 320 321 322 322 323 319 319 320 321 322 324 323 324 324 322 318 319 321 325 327 326 326 326 326 325 321 318 320 316 322 325 325 327 329 330 329 329 330 331 331 331 328 328 329 333 336 336 336 336 335 335 335 336 336 337 338 340 342 343 343 344 344 345 345 346 346 346 345 344 343 342 340 340 339 338 336 336 335 335
314 315 317 320 319 317 318 320 322 322 321 318 318 319 319 320 322 322 323 323 321 319 319 320 319 320 325 325 326 327 326 325 324 320 318 316 319 325 328 328 329 329 329 329 329 330 330 331 330 329 329 330 334 336 336 336 336 336 337 338 338 339 339 341 342 343 344 344 344 344 345 345 346 346 345 345 344 341 339 338 337 337 336 336 336
313 314 315 317 321 318 317 317 319 320 320 317 317 318 317 317 317 317 317 318 321 322 321 318 320 319 321 323 324 325 324 325 325 325 319 314 313 316 318 322 324 325 329 330 330 331 331 331 331 331 332 332 330 331 334 337 337 338 337 337 339 340 341 341 341 342 343 344 345 345 345 345 345 346 346 346 345 343 341 339 338 338 337 337 336
312 312 313 316 317 318 316 316 317 320 320 316 316 316 316 316 317 317 318 316 317 319 319 319 320 321 321 322 320 319 319 320 321 320 319 320 314 314 315 314 314 320 325 326 329 330 331 331 331 331 331 332 333 331 329 330 333 335 335 334 338 340 341 342 343 342 343 343 344 345 345 345 345 345 346 346 346 345 342 341 339 338 337 336 335
310 311 312 313 317 319 317 317 319 319 318 315 315 315 316 316 317 316 316 315 316 316 316 316 317 317 318 320 319 319 317 315 316 318 317 314 314 312 313 314 314 314 320 327 328 327 328 331 331 331 332 332 333 333 333 331 328 328 329 330 334 337 340 342 343 344 344 344 344 344 345 346 346 346 346 346 347 346 343 341 340 338 337 336 336
308 309 310 311 317 314 316 314 316 314 314 314 315 315 316 315 315 317 315 315 316 317 315 314 315 315 316 318 318 319 319 318 319 320 317 316 315 313 313 315 316 316 319 322 325 325 327 329 330 331 332 332 333 333 334 334 333 329 330 329 330 334 338 340 342 343 344 346 346 345 346 346 346 346 346 347 347 346 343 342 340 339 338 338 338
307 308 309 310 316 313 315 314 313 313 315 313 314 315 315 314 316 314 314 314 314 314 314 313 314 314 314 316 317 317 317 319 320 319 319 318 317 313 314 317 313 314 317 319 319 325 328 328 330 331 332 333 333 334 334 335 334 331 329 329 327 329 333 338 340 342 343 344 345 346 347 347 347 347 347 346 345 343 341 341 341 340 340 340 339
308 308 309 313 312 313 314 313 312 312 314 314 314 315 316 314 315 313 313 314 314 314 314 314 314 314 314 315 315 315 316 317 318 318 317 315 314 313 313 314 314 312 315 317 319 317 323 330 332 332 333 333 334 335 335 335 335 330 329 331 332 328 329 332 336 339 340 342 343 344 345 347 347 347 346 343 341 341 341 341 341 341 342 342 342
308 310 313 311 311 312 313 311 311 311 312 311 312 312 313 314 314 314 315 314 313 315 313 312 312 311 311 312 314 315 315 316 316 316 317 316 316 315 314 309 310 311 310 312 313 315 314 320 324 327 332 334 335 335 334 335 332 330 329 335 335 328 326 328 331 334 337 339 340 341 341 341 342 343 342 341 340 340 341 342 342 342 343 344 344
307 311 310 311 310 310 310 309 310 309 310 310 310 310 310 311 311 311 310 314 314 311 311 311 311 311 311 312 312 313 314 313 314 315 315 316 316 316 315 313 308 305 309 308 310 310 316 317 324 328 329 330 330 331 331 331 334 329 329 335 334 332 327 325 326 327 331 334 336 338 340 340 340 340 340 341 342 341 342 343 343 343 344 345 345
308 312 309 309 310 308 308 307 307 307 307 308 308 309 309 309 308 308 308 309 311 309 310 310 310 311 311 312 312 312 311 312 312 312 313 314 314 314 315 313 312 307 305 305 307 309 313 315 315 324 325 323 325 325 325 326 328 330 333 334 335 335 329 324 321 323 328 330 331 334 337 339 340 341 342 343 345 345 344 344 344 344 345 345 344
311 313 307 307 309 311 306 306 306 306 307 307 307 307 308 308 308 307 308 309 308 308 310 310 310 311 311 310 310 309 310 309 310 311 311 312 312 312 313 313 314 309 308 304 305 309 309 316 320 318 320 320 320 321 321 322 325 328 331 333 334 334 325 321 319 320 323 322 321 322 326 331 335 338 339 341 344 346 346 345 345 344 344 343 340
312 307 306 306 306 305 305 305 305 305 305 306 307 307 307 307 308 307 307 307 307 307 307 308 309 309 308 307 307 307 308 308 309 309 309 310 310 310 311 311 311 310 308 306 302 308 314 310 314 316 316 317 318 318 319 322 323 325 328 332 332 327 322 325 321 319 319 317 316 317 319 323 328 331 333 335 337 341 344 345 345 344 340 335 332
306 306 305 305 305 304 304 304 304 304 304 305 306 306 306 306 306 305 305 306 305 305 305 306 307 307 306 305 305 305 307 306 306 307 307 308 309 309 309 309 309 309 308 306 303 302 309 310 312 314 315 315 316 315 317 319 320 321 326 329 328 324 330 332 325 322 319 317 315 315 316 318 321 325 328 330 333 334 336 338 338 334 330 330 330
305 304 304 304 304 304 304 306 303 303 303 303 305 305 306 305 305 305 304 304 303 303 304 304 304 305 304 303 303 304 305 304 305 305 305 305 306 307 308 308 307 306 306 304 302 302 305 310 310 310 312 314 312 315 315 316 317 320 322 326 326 329 330 332 333 323 320 318 316 315 313 312 312 314 319 325 326 326 328 326 322 321 325 329 328
304 304 303 304 303 303 302 302 302 302 302 303 303 304 305 303 303 304 303 302 302 301 302 301 301 303 303 301 301 302 304 303 303 302 303 303 304 304 304 304 304 304 306 303 302 302 301 305 306 309 309 310 308 312 311 312 314 318 319 322 324 326 328 331 332 333 322 319 317 315 313 312 311 310 311 314 314 311 311 312 313 313 315 318 320
304 303 303 302 302 302 302 301 301 301 302 302 302 303 303 302 301 301 302 301 301 300 300 300 299 301 300 300 300 301 302 301 302 302 303 302 303 302 302 303 302 303 303 304 302 301 301 302 304 303 305 307 307 307 310 311 313 314 315 318 320 324 326 329 330 330 321 319 316 315 313 313 312 311 310 310 309 309 309 309 309 309 310 311 312
303 304 302 301 301 301 301 301 301 301 301 301 301 302 302 301 301 300 300 300 300 299 299 299 298 299 299 298 299 299 300 299 299 300 301 301 301 301 301 301 301 301 302 303 304 302 301 298 300 300 302 303 304 307 308 310 310 312 314 317 319 321 324 325 326 327 323 318 316 315 314 313 312 312 311 310 309 309 309 309 309 309 308 308 309
302 303 304 301 300 300 300 300 300 300 300 300 300 301 301 301 300 300 300 299 299 298 298 298 299 298 298 297 298 298 298 298 298 298 298 298 298 298 298 299 300 301 301 302 301 301 299 297 298 300 302 302 304 305 306 306 309 311 313 316 319 320 321 322 323 325 320 318 317 316 315 315 314 313 311 310 310 309 309 309 308 308 308 308 308
301 301 301 302 301 300 300 300 300 300 300 300 299 300 300 301 300 300 299 299 298 298 297 297 297 298 297 297 297 298 297 297 296 297 297 297 297 298 298 299 300 300 300 299 300 299 299 298 298 298 300 301 302 304 306 307 307 308 311 313 315 317 319 319 320 321 324 325 326 327 320 320 318 314 312 311 310 309 309 308 308 308 308 308 307
300 300 300 302 303 299 300 299 299 299 299 300 299 299 299 298 298 298 297 297 297 297 297 296 296 297 297 297 297 297 297 297 296 296 296 297 298 299 299 299 300 300 299 299 299 299 299 298 298 299 300 302 303 302 305 308 308 308 307 308 309 313 315 316 316 319 321 321 319 317 320 321 319 321 317 314 312 309 308 309 309 309 310 309 308
300 299 299 299 303 300 300 300 300 302 300 298 298 298 299 298 297 297 296 296 296 295 295 295 296 296 296 296 296 296 296 296 297 298 299 298 298 298 299 300 300 299 299 299 300 299 298 299 299 299 301 301 302 304 306 306 306 308 310 310 308 310 313 317 318 318 319 320 320 322 320 321 322 322 315 313 312 311 311 310 309 310 311 310 308
302 299 299 299 298 298 298 297 297 298 299 299 300 298 297 296 296 295 295 294 294 294 294 294 295 294 294 295 295 295 298 300 299 299 299 299 298 298 299 300 300 300 300 299 299 298 298 298 298 299 299 300 300 301 302 303 303 304 308 310 309 310 312 313 316 319 319 319 320 322 325 328 329 330 331 331 331 322 319 312 314 312 311 309 307
300 300 299 299 298 298 297 297 297 298 299 301 300 297 297 297 295 294 294 294 293 293 293 293 293 293 294 294 295 297 298 298 298 298 298 298 298 298 299 300 299 298 297 297 297 297 296 296 296 297 297 297 298 300 301 302 305 307 308 309 308 309 311 312 314 317 319 320 320 322 324 328 328 329 331 331 332 331 331 328 324 320 315 308 307
299 301 298 298 298 298 297 296 296 297 299 299 295 292 292 294 295 294 293 292 293 292 292 291 291 292 293 293 294 295 296 296 297 299 297 297 296 297 298 299 299 298 296 295 295 296 296 295 296 296 296 296 298 300 300 301 303 305 306 307 308 309 308 308 307 314 322 321 322 322 323 329 330 328 329 330 332 333 333 332 318 313 311 310 308
299 301 297 296 296 295 297 296 295 298 299 296 292 292 292 292 293 294 292 292 292 292 291 291 292 292 292 293 294 295 295 297 299 297 297 297 296 296 296 296 296 296 297 296 296 295 295 295 295 296 296 295 296 298 298 301 301 304 306 305 305 305 305 304 306 306 314 319 318 318 319 325 327 327 327 329 331 333 332 324 316 311 310 309 308
298 297 296 296 296 295 296 296 298 299 296 294 292 292 291 291 291 292 292 292 291 291 291 291 292 292 293 293 294 295 295 299 298 295 295 295 296 296 297 297 297 296 293 293 294 298 297 295 295 295 296 297 297 298 300 302 304 302 304 303 303 304 304 304 305 306 310 315 313 312 314 321 326 325 325 328 330 331 331 319 314 312 310 308 307
296 295 295 295 295 294 295 296 297 296 295 294 291 291 291 290 290 291 292 291 291 291 291 291 292 292 293 293 293 294 295 296 296 294 294 293 294 294 295 295 295 296 296 295 294 295 297 297 296 295 297 299 298 300 302 303 301 300 301 300 302 302 303 303 305 307 310 314 313 313 313 317 323 324 323 326 329 329 330 322 314 311 310 309 308
295 295 295 295 294 297 297 295 296 294 296 292 291 291 290 290 290 292 291 291 291 291 292 292 292 292 293 294 294 294 295 295 295 293 292 292 292 293 293 293 293 294 294 295 295 296 296 297 297 297 297 297 297 297 297 298 298 299 300 300 300 301 303 305 306 309 311 315 317 316 311 317 323 322 322 325 326 327 329 320 313 310 309 308 307
294 294 293 293 295 294 295 294 293 291 292 291 290 290 290 290 291 292 290 290 291 292 292 292 293 293 294 294 295 294 293 293 293 291 291 292 292 291 291 292 292 293 294 296 295 295 296 295 295 295 295 295 295 295 296 296 297 298 300 301 301 302 302 302 302 305 307 313 318 317 315 317 322 321 321 325 325 325 327 329 318 312 309 308 307
293 293 292 294 294 293 295 294 291 290 291 291 290 290 290 290 291 290 290 290 291 291 292 293 293 294 294 297 294 293 292 292 292 290 290 291 290 290 290 291 291 291 292 293 294 293 292 292 292 292 292 292 292 292 292 292 294 297 298 297 296 300 299 299 301 303 305 311 317 320 319 315 320 320 321 323 324 323 325 327 330 318 312 309 307
293 292 292 293 292 293 292 290 290 289 290 291 290 290 290 289 291 289 289 289 289 290 291 292 293 294 295 298 297 292 291 291 290 290 290 291 289 289 290 289 289 289 290 292 292 293 293 293 293 292 292 292 292 293 293 293 293 295 296 294 297 299 298 300 300 303 307 311 314 320 317 315 320 322 320 320 320 321 325 328 327 324 315 314 306
293 292 294 292 291 291 292 293 296 290 289 291 290 289 290 289 291 290 289 288 288 289 289 290 293 293 294 294 295 292 291 290 289 289 289 290 289 289 289 288 287 287 289 290 290 291 293 294 295 296 296 297 299 300 301 298 297 299 300 299 300 299 299 300 302 304 304 308 314 321 314 316 318 320 320 316 316 323 321 323 325 324 323 323 322
Wind_Speed
3 3 3 4 3 0 1 2 2 4 4 3 2 3 3 3 3 3 3 3 3 4 3 4 3 2 2 3 3 3 3 3 4 4 4 4 4 6 13 15 14 15 16 16 16 16 17 17 17 17 17 17 16 16 16 15 15 14 14 14 14 14 14 14 14 14 14 14 14 13 13 13 13 12 12 12 11 11 12 11 11 11 11 11 10
3 3 3 3 3 5 3 2 3 2 3 4 3 3 4 3 3 3 3 3 3 3 2 3 3 3 3 3 3 3 3 3 3 4 4 4 4 4 11 14 14 14 15 16 16 16 17 17 17 17 17 17 17 17 16 16 16 15 15 14 14 14 14 14 14 14 14 14 14 14 13 13 13 13 13 12 13 12 12 12 12 11 11 11 11
3 3 4 4 4 5 5 5 3 2 2 3 3 3 3 3 4 4 4 3 3 2 2 3 4 3 4 4 4 3 3 3 3 3 4 4 4 4 5 12 13 14 14 14 16 16 16 17 17 17 17 18 17 17 17 17 16 15 14 14 13 13 15 15 15 15 15 15 15 14 14 14 14 14 13 14 13 13 13 13 12 12 12 12 12
3 4 4 4 3 3 1 3 5 3 3 3 3 3 3 3 3 3 3 3 3 3 3 3 4 4 3 4 4 4 4 3 3 4 4 4 5 4 4 5 11 14 15 15 15 16 16 17 17 17 17 18 18 18 17 17 16 15 14 14 13 13 14 15 15 15 15 15 15 15 15 15 15 15 15 15 14 13 13 14 14 13 13 13 13
2 3 5 2 2 3 1 2 5 5 4 4 4 3 3 3 4 3 3 3 3 3 3 3 4 4 3 4 3 4 4 4 4 4 5 5 5 5 5 5 6 11 15 15 16 16 16 17 17 18 18 18 18 18 18 17 17 16 15 15 15 15 15 15 15 15 15 15 16 16 15 15 15 15 15 15 15 14 14 14 14 14 13 13 13
3 3 3 2 2 2 2 1 3 4 5 3 1 1 3 3 3 3 3 3 4 3 2 3 3 3 4 4 3 4 3 4 4 4 4 5 4 5 5 5 5 5 8 14 15 15 16 16 16 17 17 18 19 18 18 18 17 17 17 16 16 16 16 15 15 16 16 16 16 16 16 15 16 16 16 15 15 15 15 15 15 15 14 14 14
2 2 1 1 2 2 3 3 1 2 2 4 2 0 1 2 2 2 1 2 2 2 3 2 2 3 3 2 3 3 2 3 3 4 4 4 4 4 4 4 4 4 5 5 10 15 16 16 16 15 15 17 19 19 19 19 18 18 17 17 17 16 15 15 15 15 15 16 16 16 16 16 16 16 15 15 16 16 16 15 16 15 15 15 14
2 3 2 0 0 3 1 0 3 2 2 4 5 4 3 3 2 1 3 3 3 2 1 1 2 3 3 3 3 3 3 2 2 3 4 3 4 4 4 5 5 5 5 5 5 7 16 16 16 16 16 16 17 19 19 19 19 18 18 18 17 15 15 15 16 16 16 16 17 17 17 17 17 17 17 17 17 17 17 16 16 16 16 15 15
2 2 2 1 1 2 1 1 1 2 2 1 5 6 4 4 4 4 3 3 4 4 3 2 2 2 3 4 4 3 4 4 3 3 2 3 4 3 4 5 5 6 5 5 5 5 9 16 17 17 16 16 16 17 18 20 20 19 18 18 17 17 15 15 16 17 18 18 19 18 18 18 18 17 18 19 18 18 17 17 17 17 16 16 16
3 2 2 2 2 1 2 2 1 1 1 1 1 2 5 7 5 5 5 3 4 4 4 4 3 3 4 4 5 4 4 4 4 3 3 4 4 4 5 5 4 5 5 5 5 5 5 8 15 16 16 16 17 17 17 19 19 20 20 19 18 19 17 16 16 17 18 19 19 19 19 18 19 18 18 19 19 19 19 18 18 17 17 17 17
4 4 4 3 4 3 4 4 2 1 2 3 2 2 1 2 2 2 2 5 5 3 3 3 3 3 3 5 4 5 4 4 4 3 3 5 5 5 3 4 5 5 6 6 5 5 6 5 5 7 10 18 17 18 18 18 18 19 20 21 20 19 18 17 17 17 17 19 20 20 19 19 19 19 19 19 19 19 19 20 19 19 18 18 18
4 5 5 5 3 3 2 2 1 2 3 4 1 3 2 2 2 2 4 2 4 2 1 1 2 4 4 3 4 4 5 5 5 5 4 5 6 5 5 4 4 5 6 6 6 6 6 6 5 6 6 11 17 17 18 18 18 18 20 21 21 21 20 18 18 18 18 18 20 20 20 20 20 20 20 20 20 19 19 19 19 19 19 19 18
3 4 4 3 3 2 2 1 0 1 1 3 1 3 3 3 2 2 1 1 0 1 1 1 1 2 1 2 3 4 6 6 5 4 4 4 3 4 5 4 5 4 5 4 5 6 6 6 6 6 6 6 8 15 17 18 18 18 19 21 22 22 20 19 18 18 19 19 19 19 19 19 20 20 20 20 20 20 20 20 20 20 20 19 19
2 2 3 4 3 2 2 4 4 3 0 1 2 4 3 3 1 1 0 2 1 2 3 2 3 4 4 6 5 3 1 2 3 3 3 4 4 4 4 4 5 5 4 4 5 5 5 5 5 5 6 6 6 6 8 11 14 19 19 21 22 23 22 20 19 18 18 19 19 18 18 19 20 20 20 21 20 20 20 20 20 20 20 20 19
3 1 2 1 2 1 0 1 3 3 3 3 2 4 4 4 3 3 1 1 1 2 2 3 1 0 1 1 3 7 4 4 2 3 3 3 2 3 3 4 5 5 5 4 4 5 5 5 6 6 5 6 6 6 6 7 10 15 18 19 20 21 22 23 22 20 19 19 19 20 19 18 20 20 21 21 21 20 20 20 21 21 20 19 18
4 4 1 1 1 1 0 1 3 3 2 2 4 5 4 3 2 3 3 2 1 1 0 1 1 1 3 2 1 1 6 3 4 5 3 5 2 2 2 3 4 4 3 4 4 3 4 4 5 5 6 6 6 6 6 6 10 12 15 16 19 20 21 21 22 22 21 19 19 20 20 18 20 21 21 21 20 20 21 21 21 21 20 19 18
4 4 3 3 3 3 4 4 5 5 4 5 5 5 5 4 4 4 3 1 2 0 2 1 2 2 3 2 1 1 3 2 6 7 1 3 1 4 4 3 3 2 2 3 3 3 4 4 5 5 6 6 6 6 6 6 7 7 10 14 17 19 20 22 23 22 22 21 21 20 20 19 20 21 21 21 21 21 21 21 21 21 20 19 18
5 5 5 4 5 4 4 4 4 5 5 4 4 5 5 6 5 4 4 3 2 3 2 3 2 2 2 1 2 3 1 3 5 5 1 4 6 4 4 3 2 2 2 3 3 3 3 4 4 5 5 6 6 6 6 7 7 7 7 9 16 18 19 21 22 22 22 23 23 23 22 20 21 21 22 22 21 21 22 22 21 21 20 20 19
6 5 5 5 5 5 5 4 5 4 3 4 5 5 4 4 4 4 3 2 2 3 3 2 2 2 2 4 3 3 4 3 3 4 8 2 1 3 4 5 5 4 4 4 4 3 4 4 5 5 5 5 5 5 5 7 8 9 11 12 14 16 17 20 20 21 21 23 24 24 24 23 23 24 24 24 22 21 21 21 21 20 20 20 20
5 6 5 5 4 5 4 5 5 4 4 5 5 4 4 4 3 3 3 3 3 4 3 3 2 2 2 1 2 3 4 5 5 4 7 9 8 2 3 3 5 4 4 5 5 5 6 5 5 5 4 5 4 5 6 6 7 7 8 14 16 16 17 19 19 20 20 21 23 23 24 23 24 25 25 24 24 21 21 21 20 20 20 20 20
5 5 5 5 4 4 4 4 4 4 4 4 4 4 5 5 5 5 5 4 4 3 2 3 3 2 3 2 2 1 1 3 3 2 2 3 7 6 5 5 5 4 4 3 5 5 5 5 5 5 5 5 5 5 5 5 5 6 8 12 15 16 17 18 19 19 20 21 21 22 23 24 25 26 25 26 25 22 21 21 21 21 21 20 20
4 4 5 5 5 4 4 4 4 4 4 4 4 5 5 5 4 4 4 5 4 3 3 2 2 3 3 3 2 2 2 2 1 1 3 5 7 6 6 7 8 3 4 6 5 4 5 5 5 5 5 5 5 5 5 6 6 5 8 13 14 14 15 16 17 17 18 19 21 21 22 23 23 25 26 26 27 24 21 21 21 21 21 21 21
4 3 4 5 4 3 3 3 3 3 3 4 4 3 3 4 3 4 5 5 4 4 4 3 2 2 3 2 2 3 3 2 2 2 2 4 4 6 5 5 7 11 3 3 4 6 7 6 6 6 5 5 5 5 5 6 7 8 12 12 13 14 14 15 16 16 17 18 19 20 21 21 22 23 24 25 27 26 24 22 21 21 21 21 21
4 5 5 5 4 4 3 4 3 4 4 3 3 2 2 2 3 3 3 2 2 3 3 4 3 2 3 2 2 2 3 3 3 2 3 4 5 7 8 5 7 5 4 6 7 7 6 5 5 6 6 5 6 5 5 5 6 11 10 11 13 14 14 15 16 16 16 17 18 19 19 20 21 22 23 24 25 25 24 23 22 21 21 21 22
5 5 4 5 4 5 5 6 6 6 5 6 5 4 3 2 1 2 2 2 0 0 2 2 2 3 3 2 2 2 3 3 3 3 4 5 6 7 6 5 8 7 5 5 4 4 6 6 6 5 6 5 6 5 5 5 5 7 10 8 12 12 13 14 15 15 15 16 17 18 18 19 20 21 22 22 22 22 22 22 22 22 21 21 22
2 3 3 4 4 4 4 4 4 4 4 4 4 4 4 4 5 4 3 3 2 2 2 3 2 3 3 3 2 2 3 2 3 3 3 4 6 7 7 6 6 8 4 3 3 5 3 2 3 4 5 6 5 5 4 6 5 8 10 8 9 11 13 13 14 14 16 17 17 17 17 18 18 19 19 19 20 20 21 21 21 22 21 22 23
1 2 4 4 4 4 4 5 4 5 5 5 4 4 4 3 3 3 3 3 4 3 4 3 3 4 3 3 3 2 2 2 2 3 2 3 5 6 6 9 7 5 6 5 6 6 7 5 7 6 5 5 5 4 5 5 6 9 10 7 6 10 12 13 13 14 15 16 16 17 17 17 17 18 18 18 18 19 20 21 21 21 22 22 21
1 2 3 3 4 5 4 5 4 4 4 4 4 4 4 4 3 3 4 3 3 3 3 3 4 3 3 3 1 2 2 3 3 3 3 3 4 4 4 4 7 10 6 7 5 5 5 5 3 5 4 4 6 6 7 7 6 9 10 6 6 6 10 12 13 13 13 14 16 17 17 17 17 17 18 18 18 18 19 20 21 21 22 22 21
3 2 3 3 4 5 5 4 5 4 4 4 4 4 3 3 3 3 4 4 2 2 3 3 3 3 2 3 3 2 3 3 3 3 3 2 3 3 2 3 4 7 8 7 6 6 3 6 7 2 8 9 8 8 9 9 10 10 8 6 6 6 8 12 12 12 13 14 14 15 16 17 17 17 17 17 18 19 20 20 20 20 22 22 22
2 2 4 4 4 4 5 5 4 4 4 4 4 4 3 3 3 3 2 2 4 4 4 3 3 3 3 3 3 2 3 3 3 3 3 3 3 3 3 3 3 5 5 8 10 4 7 4 3 5 6 8 8 8 8 9 11 13 9 9 6 6 10 13 13 13 13 14 15 15 15 15 17 18 18 18 19 19 19 19 20 20 21 21 21
3 3 4 4 4 4 5 4 4 4 3 3 3 3 2 3 3 3 3 3 4 4 3 3 2 2 2 2 2 2 3 3 3 3 3 3 3 3 3 3 3 3 5 5 9 2 3 7 5 7 8 8 8 8 8 8 9 11 10 8 8 10 12 10 13 14 14 15 15 14 14 14 13 15 16 16 18 19 19 19 19 19 19 20 20
5 3 4 5 5 5 4 4 4 3 3 3 3 2 2 2 2 3 3 3 3 3 2 2 2 2 2 2 2 2 2 2 2 3 3 3 3 3 3 3 3 3 3 5 8 11 5 8 8 6 7 9 8 9 9 8 8 10 9 8 10 11 9 8 11 13 14 15 15 14 14 14 14 14 15 14 15 17 17 18 18 18 18 18 19
5 5 4 5 5 5 5 4 4 3 3 2 2 2 2 2 3 3 3 4 4 3 3 3 4 3 3 3 3 3 2 3 3 3 3 3 3 3 3 3 3 3 4 5 8 11 8 5 7 7 7 8 9 7 10 9 9 9 9 8 9 7 7 7 8 11 14 15 15 15 14 14 14 14 14 13 15 15 16 16 17 17 17 17 17
5 5 5 4 5 5 5 4 3 2 1 1 2 1 2 2 3 2 3 3 3 3 3 3 3 2 3 3 4 4 3 4 4 4 4 4 4 4 3 4 4 5 4 5 7 8 12 6 7 7 8 7 10 8 9 11 11 9 11 10 9 8 7 7 7 8 12 14 14 14 14 14 14 14 14 15 15 15 15 16 16 16 15 16 16
4 5 5 5 5 5 5 4 2 1 1 1 2 1 3 3 3 2 2 2 2 2 2 3 3 3 3 3 4 4 3 4 4 5 4 5 4 5 5 4 6 5 6 6 7 10 11 10 6 8 7 8 9 10 10 10 10 11 12 11 10 9 8 7 7 7 11 14 14 14 14 15 15 15 15 15 15 16 16 16 16 16 15 15 16
6 4 5 6 5 5 5 3 2 0 2 3 2 1 2 2 2 1 1 1 2 2 3 3 4 4 4 5 5 5 5 5 5 5 5 5 5 6 6 6 6 7 6 6 7 9 10 13 7 7 9 10 9 11 10 10 11 11 10 10 10 11 10 9 9 8 10 13 14 15 15 15 15 16 16 16 15 15 16 16 16 16 16 16 15
6 6 4 4 5 5 4 3 1 1 3 3 3 1 1 1 1 1 2 2 3 3 3 4 6 5 5 6 6 5 5 6 5 5 5 6 6 6 7 6 6 6 6 7 8 9 11 12 11 8 8 10 9 10 11 11 11 11 10 11 10 10 11 10 10 9 12 14 14 14 14 14 14 15 15 16 16 15 15 15 15 15 15 15 15
6 5 6 4 4 5 4 2 1 2 3 3 3 3 1 0 0 1 2 3 3 3 4 4 4 5 6 7 7 6 6 6 6 6 5 7 6 6 7 7 7 7 8 9 9 9 10 12 12 12 8 9 9 8 9 10 10 11 10 9 10 10 10 10 9 8 8 8 7 8 10 12 12 13 13 14 15 15 14 14 14 15 15 15 15
7 6 5 5 3 4 3 1 1 2 3 3 2 1 2 2 1 2 3 3 3 3 4 5 5 5 6 6 7 7 6 6 7 7 7 7 6 7 7 7 8 8 8 8 9 9 8 10 11 10 10 8 8 9 8 9 10 10 11 11 10 8 9 9 10 8 8 9 11 13 13 13 15 13 13 14 13 14 14 14 14 15 15 15 15
6 6 6 5 3 3 1 2 2 2 2 2 2 3 1 1 2 2 2 2 4 4 5 5 6 6 7 7 6 7 7 7 7 8 8 7 7 8 7 7 8 9 8 8 8 9 9 8 9 10 9 10 8 7 8 8 9 8 7 8 11 10 9 7 8 9 9 8 10 10 10 10 11 13 13 13 14 14 14 13 14 14 15 15 15
5 5 5 5 4 1 1 2 3 2 1 1 2 2 3 2 1 2 2 3 4 5 4 4 5 6 7 6 6 6 7 9 11 9 8 9 7 7 7 8 9 8 8 8 8 8 8 9 10 9 9 9 9 8 8 9 9 9 9 8 10 10 10 10 9 8 8 9 9 9 8 7 8 8 7 7 7 9 10 12 10 13 14 13 14
5 5 5 3 3 2 2 3 3 2 2 2 5 6 4 2 1 1 2 3 4 4 5 5 5 5 5 5 6 10 9 9 9 9 8 7 9 7 6 6 6 7 7 8 8 8 10 10 11 11 11 11 10 9 9 10 10 10 10 9 10 10 10 10 9 8 7 9 8 9 10 7 7 7 6 7 6 6 5 5 5 8 10 14 15
5 4 4 4 3 2 3 3 4 3 1 3 6 5 4 5 3 2 3 3 4 4 5 5 5 5 5 5 5 6 7 7 7 7 7 8 8 9 7 8 9 8 8 9 9 9 9 10 11 11 11 13 13 11 10 10 9 10 10 9 9 9 9 8 10 7 5 7 7 8 9 6 4 8 8 7 7 5 5 6 9 11 13 13 14
4 3 4 4 3 3 3 2 2 1 2 5 6 4 4 4 5 4 3 3 4 4 4 4 4 4 5 5 5 4 4 6 5 6 8 8 8 9 10 10 11 12 10 9 9 9 9 9 10 11 12 13 14 12 11 9 10 10 9 8 8 8 8 9 8 9 7 10 11 10 11 9 6 7 8 8 6 5 5 6 8 10 12 13 13
4 5 5 4 4 3 2 3 2 0 3 4 4 4 3 4 5 6 3 4 4 4 4 4 4 4 4 4 5 4 4 8 5 5 5 6 8 10 11 12 12 12 12 12 11 10 10 11 11 11 11 11 14 13 11 11 10 12 10 9 7 8 8 9 7 9 10 9 11 12 12 10 6 6 8 8 6 4 5 7 10 10 11 12 13
5 5 5 5 4 3 3 3 2 1 3 4 4 3 3 5 6 6 3 3 3 3 4 4 4 4 4 4 4 4 4 4 3 5 5 6 7 7 8 8 8 11 12 12 12 13 12 11 11 12 11 11 12 12 12 9 9 10 9 10 9 9 10 11 12 12 13 9 9 9 12 12 8 7 9 9 5 4 5 8 10 11 11 12 12
7 6 6 5 4 4 3 3 3 3 3 4 3 2 4 5 7 4 3 3 3 4 3 4 4 4 4 4 4 4 4 3 3 6 6 7 7 7 7 8 8 9 9 9 9 8 8 8 9 10 10 9 10 10 10 9 9 9 9 11 11 11 11 13 13 12 12 10 10 9 11 10 7 7 7 8 8 7 5 7 10 11 12 12 12
4 4 3 3 5 5 5 4 4 4 2 3 3 2 4 5 6 3 3 4 4 4 4 3 4 4 3 4 2 3 3 4 6 7 8 8 7 7 8 8 8 8 8 9 11 11 11 10 10 10 10 11 13 13 13 12 10 10 10 9 8 8 9 10 11 11 12 10 9 10 9 10 8 8 8 7 7 8 7 6 7 10 11 11 9
6 5 6 5 5 6 5 4 5 4 4 3 2 1 2 5 4 3 3 3 3 4 4 4 4 4 5 1 3 3 4 4 7 7 8 11 6 7 8 9 8 9 9 9 11 13 14 16 17 19 19 19 19 19 18 20 15 11 8 8 9 7 10 11 10 9 11 10 7 7 9 11 8 8 7 6 7 8 7 6 5 3 4 6 6
7 6 5 5 5 5 6 6 5 6 4 4 3 1 1 3 3 3 3 3 3 3 4 4 3 4 5 8 6 4 4 5 7 7 8 9 6 7 8 9 10 10 10 9 9 9 14 16 18 18 19 19 19 20 19 18 18 13 9 11 8 8 11 8 9 10 10 10 10 7 6 8 6 6 7 3 4 3 5 4 2 1 2 4 11
6 5 4 6 5 4 5 5 7 7 5 5 4 1 0 2 2 1 2 2 3 3 3 4 4 3 4 5 6 7 5 6 7 7 8 9 6 7 8 9 9 10 10 12 12 12 11 11 10 10 11 10 10 9 10 14 16 15 11 12 10 10 10 10 11 10 11 9 9 5 9 7 6 7 6 3 5 2 1 1 3 3 4 5 5
Wind_Direction
55 25 359 343 339 359 170 191 162 155 143 138 184 199 193 198 216 222 213 233 238 254 242 263 259 243 229 269 270 250 234 209 191 198 195 199 214 222 215 211 208 209 212 214 213 213 214 214 214 214 213 212 209 210 211 212 215 215 219 219 218 221 223 222 221 221 218 215 215 216 216 215 213 216 216 219 217 217 214 213 217 220 221 223 223
64 59 64 38 7 343 324 263 214 199 161 168 175 201 218 211 222 226 229 226 241 246 256 272 269 260 237 242 242 226 218 220 205 197 204 198 210 224 226 216 214 212 214 216 217 217 217 217 218 218 215 213 214 213 213 214 216 216 217 223 218 215 220 224 226 226 224 222 220 219 220 220 220 221 221 220 221 222 223 221 220 222 225 226 227
118 104 82 66 52 18 330 309 265 220 196 190 168 198 213 227 230 233 236 236 242 245 246 258 266 259 245 244 246 230 217 218 222 196 200 205 210 215 231 230 220 217 216 218 220 220 219 221 221 221 221 220 216 216 217 217 218 219 213 214 220 218 219 222 225 228 228 228 226 224 223 223 224 225 226 227 225 225 226 225 224 225 226 229 231
120 123 117 131 136 131 120 337 312 285 234 191 185 201 216 228 232 241 235 228 238 233 225 235 256 255 246 249 264 264 259 238 234 214 214 204 199 210 220 230 229 219 218 218 219 221 222 222 223 223 224 224 224 221 219 221 222 222 221 213 212 221 224 226 227 229 231 230 230 230 229 228 227 226 227 229 230 229 231 231 230 229 228 229 231
133 116 95 125 126 120 73 103 290 295 250 223 192 183 202 216 231 228 241 237 244 250 229 227 250 263 255 255 245 248 246 238 233 222 219 214 198 202 207 218 225 228 223 221 220 220 222 223 223 225 225 226 227 227 226 225 227 228 228 228 220 219 227 229 231 231 232 232 232 231 231 232 231 230 229 230 231 231 232 234 235 233 233 233 234
113 66 86 95 122 97 73 356 26 312 331 307 2 158 186 202 221 196 221 207 219 224 208 248 250 278 266 263 260 256 245 242 234 227 219 222 211 205 213 210 213 215 226 225 223 223 224 224 225 225 227 228 229 228 227 229 229 230 231 233 234 233 233 230 232 233 233 235 234 234 233 231 232 233 233 233 233 232 232 234 235 236 236 236 237
85 84 39 76 68 60 35 23 83 57 316 310 312 290 153 161 199 218 187 209 214 210 186 208 244 279 263 273 262 268 253 241 243 241 228 221 203 215 210 216 217 218 219 215 224 225 226 228 227 226 227 229 231 231 231 230 231 232 232 232 231 232 231 227 228 233 234 234 235 235 236 233 232 233 233 235 236 236 234 234 236 237 238 238 238
83 106 120 248 124 95 118 26 3 356 15 336 319 324 353 23 8 74 12 351 9 1 80 18 339 322 325 313 302 305 298 286 263 257 248 232 222 217 207 211 210 216 216 218 215 219 222 225 227 228 228 228 230 233 233 233 233 234 233 234 233 232 229 225 222 226 229 231 234 235 235 237 236 234 233 234 236 238 238 238 238 239 240 240 241
112 118 138 180 76 131 76 80 345 297 6 76 333 321 332 353 13 7 14 347 359 345 347 21 346 307 310 313 303 308 294 283 269 244 255 241 237 227 216 216 216 221 218 214 215 221 224 226 226 228 229 229 229 230 232 234 234 235 236 235 233 234 230 225 221 221 223 227 229 231 235 235 235 235 235 235 235 237 238 239 238 239 240 241 241
92 80 117 114 142 145 89 91 70 4 21 220 180 329 336 346 354 348 352 340 347 337 325 333 340 320 309 299 288 284 267 259 239 251 242 253 242 224 218 213 209 214 217 220 221 220 222 228 230 231 231 229 229 230 230 232 233 234 235 237 235 234 233 227 222 220 220 223 224 227 232 233 234 235 235 234 235 236 237 237 239 239 239 240 240
86 64 47 52 51 56 44 16 26 64 260 285 134 188 237 254 313 289 265 290 301 272 278 301 306 294 277 260 257 261 264 262 259 241 225 245 256 242 200 220 211 211 210 214 217 219 224 221 222 227 230 230 230 230 230 231 232 234 236 237 236 236 235 233 225 221 220 218 221 225 228 228 230 232 234 234 235 234 235 236 238 239 240 240 241
57 68 67 31 50 39 76 140 196 194 122 288 279 175 170 319 291 249 263 220 252 296 244 246 255 254 271 285 256 259 255 249 253 237 226 219 232 244 243 230 214 224 216 214 211 212 216 216 214 221 228 232 232 232 232 232 232 232 235 238 239 238 236 231 229 225 222 220 219 224 225 225 226 229 232 234 235 234 234 235 237 238 239 240 240
95 99 101 90 26 356 337 330 293 113 192 167 150 149 158 170 225 233 268 345 37 235 291 237 16 5 231 268 281 233 235 230 235 258 253 250 233 243 254 265 252 236 230 225 226 218 214 213 212 211 219 223 232 234 235 235 235 235 234 236 239 240 239 236 232 228 226 224 224 222 223 223 224 226 229 232 234 235 235 234 234 235 238 240 240
48 60 106 145 161 130 360 338 332 321 313 78 84 101 127 114 141 105 259 20 334 279 314 283 29 45 359 337 329 326 293 309 270 280 278 254 238 231 227 237 253 255 253 230 230 229 228 228 226 220 217 219 224 224 232 235 236 235 236 236 238 239 240 239 237 234 230 227 227 226 222 222 223 225 227 229 231 233 234 234 234 234 235 237 239
16 61 60 11 49 88 111 244 321 333 341 17 67 110 133 133 131 115 35 31 294 312 25 27 76 233 160 74 3 351 342 4 1 328 305 275 262 238 220 223 243 244 234 230 229 225 227 222 224 224 224 226 230 231 229 233 235 234 234 236 238 239 241 242 242 240 235 230 228 228 227 220 222 224 225 228 229 230 230 231 232 234 235 236 236
7 3 67 185 169 162 220 323 13 339 314 68 65 66 64 61 78 116 139 99 27 325 318 97 133 25 43 76 250 76 311 342 329 298 235 278 261 253 215 227 238 249 243 240 246 243 246 238 236 229 226 224 227 227 230 228 237 241 242 240 240 241 242 242 242 242 240 236 231 229 230 226 223 225 226 227 227 227 227 228 229 232 233 234 235
30 16 8 9 5 14 21 23 41 36 41 58 65 66 71 75 69 70 47 80 113 335 4 46 109 99 135 107 45 271 232 290 347 300 18 8 309 257 262 272 268 264 225 244 252 251 247 241 231 228 227 221 221 223 226 228 232 231 237 238 238 238 239 241 241 241 240 240 236 232 228 225 226 227 228 228 226 225 225 226 228 229 230 231 233
35 36 31 32 29 28 35 47 51 48 52 56 59 57 49 52 44 62 59 22 94 73 30 353 307 165 197 247 147 184 267 305 328 297 309 258 259 292 312 292 273 239 227 241 250 261 243 255 243 240 234 227 223 224 218 223 224 225 226 231 231 235 236 238 239 239 240 241 241 240 237 229 228 228 230 230 227 226 224 224 224 227 229 230 232
31 34 41 43 45 38 40 51 56 59 58 64 56 51 46 44 36 51 51 53 64 89 57 341 350 75 207 229 221 212 210 262 275 323 310 340 346 329 310 303 297 291 289 289 284 264 255 247 256 252 245 233 229 229 227 228 225 227 228 232 234 234 235 238 240 239 238 239 240 241 241 240 238 238 237 238 231 228 228 226 226 227 228 230 232
27 27 28 35 51 50 51 51 52 45 48 50 49 38 42 30 33 20 17 28 53 79 35 19 68 293 325 265 233 230 222 236 240 246 288 294 301 278 260 326 331 312 292 295 298 292 286 270 259 262 251 249 236 232 233 236 235 230 234 236 236 233 234 238 240 239 237 238 239 239 240 239 240 243 243 240 240 235 231 229 229 228 229 230 231
27 24 20 25 29 42 51 57 55 48 53 48 42 43 45 34 20 18 16 11 15 28 39 11 10 318 339 331 328 305 290 242 244 227 284 307 294 298 314 321 302 278 282 296 286 280 281 278 268 268 265 253 241 238 238 240 239 236 238 238 239 240 240 240 241 240 239 239 239 237 237 239 242 242 242 245 246 241 233 231 230 230 230 230 231
18 23 22 14 21 25 40 46 40 42 46 39 39 35 30 33 27 16 19 27 14 21 28 348 347 323 323 319 320 331 335 357 78 63 261 226 265 294 309 319 312 282 316 282 273 288 290 280 273 261 259 257 252 243 239 241 245 242 245 246 246 243 243 245 245 242 239 239 239 239 237 236 238 241 241 242 244 244 239 232 230 230 230 230 230
3 23 30 7 12 15 28 27 26 28 37 34 35 33 17 26 21 35 40 36 16 18 26 12 351 337 325 316 293 280 272 231 245 255 248 278 296 280 285 283 289 300 282 274 299 290 279 273 271 267 258 257 256 252 242 238 246 249 251 250 250 251 250 249 249 244 239 240 240 239 238 238 238 238 240 243 245 245 244 238 232 229 228 229 229
13 10 16 7 12 10 5 7 18 12 13 6 10 17 22 34 41 51 38 30 27 42 27 8 358 339 315 299 288 292 289 264 279 264 263 270 271 288 296 303 284 247 304 303 280 269 260 260 257 261 263 266 261 252 257 252 251 252 254 253 251 252 251 252 252 251 248 243 242 241 240 238 237 239 240 241 243 244 244 242 237 232 229 228 228
0 6 354 357 360 6 8 7 5 3 357 360 353 350 359 44 30 41 13 346 298 155 18 304 292 302 302 300 272 277 263 273 283 283 286 286 285 290 282 274 285 295 295 292 285 269 262 256 257 256 268 265 265 255 253 255 255 258 255 259 254 252 253 253 255 257 255 252 250 250 246 242 241 239 239 240 242 242 242 242 241 237 233 230 229
316 341 305 339 18 16 14 29 24 17 15 12 18 14 10 359 347 336 317 285 271 224 247 273 287 279 277 284 279 264 283 293 279 277 278 287 290 282 294 289 280 289 298 277 296 320 322 322 283 268 269 265 266 271 261 267 267 264 263 264 264 257 254 254 255 257 260 261 260 258 255 251 248 244 242 242 241 241 242 242 242 240 237 235 235
250 292 7 27 41 50 52 50 36 34 29 32 26 28 16 1 328 295 294 305 306 326 334 322 315 308 305 279 299 309 300 316 314 292 279 265 268 291 302 307 302 287 296 291 297 262 278 272 273 270 256 262 268 275 282 287 286 284 284 276 270 267 260 258 258 260 261 263 264 264 264 260 256 253 249 246 243 241 240 241 242 242 241 239 235
258 54 29 75 84 81 68 60 56 54 51 49 42 37 22 14 359 335 315 303 268 240 259 243 239 255 287 290 282 332 356 357 1 342 328 313 310 308 303 296 299 301 304 295 288 288 286 290 297 267 287 342 344 337 325 306 300 295 288 276 275 273 265 261 260 260 261 261 263 265 267 266 263 258 254 250 247 243 241 240 241 241 242 240 236
57 91 105 87 103 103 89 75 60 53 53 39 36 41 51 60 44 13 347 335 324 328 316 313 321 312 356 359 7 19 8 5 11 10 359 6 11 347 340 319 307 294 303 292 287 303 311 334 310 310 21 355 349 349 344 336 324 312 297 278 272 263 269 265 263 262 264 265 265 264 264 266 266 265 260 253 248 246 244 241 240 239 240 240 240
130 129 120 121 95 87 87 74 63 55 48 32 24 15 17 44 55 62 12 7 46 43 28 40 32 32 34 26 16 13 354 358 360 347 354 351 352 349 331 334 329 306 308 298 295 293 291 274 306 318 353 342 336 332 330 321 320 318 311 301 285 278 271 270 269 269 268 267 267 266 263 262 264 266 265 263 259 252 247 244 240 240 239 241 241
134 134 131 102 97 85 87 83 68 63 49 34 22 20 22 41 26 29 13 44 76 69 30 32 35 48 43 36 8 2 346 347 339 344 340 337 338 329 321 325 326 320 311 305 297 263 339 305 304 308 319 324 324 316 306 310 315 321 319 314 312 307 296 287 282 276 271 267 265 264 261 259 255 260 261 258 258 260 257 253 248 244 241 239 238
142 130 112 114 111 105 95 93 81 67 50 16 11 14 20 42 24 24 8 9 35 42 35 20 15 20 28 20 360 337 335 324 325 323 317 312 318 313 312 315 309 309 306 288 278 285 290 290 297 303 313 315 315 305 301 302 308 310 311 310 311 307 298 293 287 278 276 273 270 267 264 260 258 260 260 258 255 255 255 257 256 252 245 240 237
135 122 124 125 117 111 106 101 108 104 78 3 345 4 33 35 23 32 11 17 26 15 10 13 357 357 6 339 329 316 311 312 303 303 298 301 298 291 289 294 294 300 298 291 284 289 285 283 297 301 307 315 302 298 303 305 304 303 299 298 300 296 292 287 289 284 278 276 273 269 267 263 257 254 256 256 256 255 255 255 255 255 252 247 242
131 138 136 126 122 119 115 117 116 103 169 329 321 19 74 57 40 31 29 25 27 9 6 2 346 342 327 320 311 306 302 299 294 293 294 292 288 282 274 276 274 272 255 277 277 278 287 285 280 292 299 300 291 300 300 302 299 298 297 296 294 289 285 285 286 288 285 280 278 275 270 267 262 254 251 254 256 256 255 256 256 257 258 257 252
127 133 137 129 127 126 120 133 145 182 286 301 319 50 81 79 72 45 27 38 17 356 350 327 322 313 309 306 295 287 288 282 276 277 278 277 275 274 272 269 273 269 269 261 274 279 284 286 289 292 288 289 284 292 292 288 291 293 290 286 286 287 285 283 286 287 288 287 284 280 274 271 267 262 257 252 251 252 253 254 254 254 253 253 253
127 120 129 134 129 127 129 124 167 263 303 313 345 23 117 119 113 78 16 357 329 317 308 311 302 301 302 295 288 289 289 285 278 277 276 276 277 280 280 279 271 274 273 268 265 280 290 293 286 283 291 291 285 285 286 287 287 285 283 282 277 274 279 286 287 287 288 287 287 285 281 273 270 268 264 258 253 251 251 252 253 252 250 248 248
133 131 126 131 125 136 136 155 183 259 271 298 315 276 233 141 111 2 314 322 320 310 304 301 313 309 297 290 288 285 284 284 285 284 290 288 287 284 281 275 269 269 276 279 283 283 287 285 289 279 281 281 282 282 284 286 289 285 279 277 278 281 285 286 287 285 284 279 275 278 279 276 272 269 266 264 260 255 251 251 251 251 250 248 245
135 140 141 150 149 145 151 176 201 259 291 281 249 237 285 290 230 304 329 329 325 317 305 294 289 290 291 292 292 293 291 291 294 291 286 282 277 273 270 273 283 284 279 279 277 274 276 283 286 292 281 281 287 279 285 286 289 293 295 290 288 282 278 278 279 283 283 290 300 295 288 283 274 266 262 261 262 258 253 248 245 243 242 242 240
139 143 148 147 155 145 167 192 239 265 296 295 255 175 221 241 308 353 343 334 312 306 305 300 295 289 286 287 295 298 297 298 298 296 289 287 285 293 291 289 286 282 282 281 280 270 260 267 280 279 284 276 278 292 294 291 290 286 290 294 282 272 268 270 278 280 286 289 285 276 273 276 281 282 278 272 262 256 252 247 243 241 241 240 240
143 151 160 158 160 137 192 219 272 302 313 335 181 196 173 72 41 8 338 319 313 300 295 296 302 306 307 306 303 306 303 293 287 294 302 305 306 298 295 293 296 297 296 296 293 287 278 273 283 288 283 287 282 275 287 291 290 285 270 281 292 299 293 283 276 285 286 285 285 285 274 267 269 269 263 258 256 253 247 246 244 242 239 237 236
149 157 160 151 137 167 334 343 323 333 297 278 173 132 107 77 77 11 337 314 302 301 302 309 311 314 313 315 316 311 310 315 315 311 308 309 305 307 308 303 297 296 299 303 303 302 299 297 295 295 294 292 291 293 295 294 293 294 299 292 285 283 284 285 279 268 271 277 277 272 270 264 275 272 275 279 263 247 240 234 247 242 242 241 238
151 153 143 132 134 181 272 323 331 329 324 347 78 73 55 73 105 3 309 303 305 309 320 326 322 313 315 315 317 323 327 327 324 315 313 332 336 328 320 323 330 328 318 310 301 298 296 290 289 293 293 291 292 290 287 288 292 295 289 288 286 291 289 284 280 269 265 264 268 273 274 267 262 272 269 268 270 244 256 221 220 227 229 230 236
156 161 136 151 206 220 238 271 300 321 22 88 100 95 72 31 26 354 326 318 323 325 328 325 320 328 326 319 302 313 324 316 304 324 347 330 319 321 325 326 320 314 309 301 294 294 291 288 289 288 286 288 289 291 289 290 290 293 289 292 302 305 302 306 304 307 246 253 275 283 279 266 238 267 278 270 264 265 248 247 244 233 233 233 232
168 139 145 182 218 245 256 273 265 273 122 96 101 90 58 29 7 347 329 335 331 331 327 318 315 319 319 316 311 298 300 312 347 6 342 340 336 330 318 307 298 292 281 269 281 288 282 282 280 278 283 282 288 288 287 287 289 286 289 305 300 306 310 307 311 305 317 326 307 295 284 278 265 263 269 263 260 255 255 259 248 240 240 241 241
148 160 187 180 221 222 208 268 286 40 119 115 106 86 45 11 350 346 342 335 328 327 313 309 309 310 314 318 312 312 297 344 11 350 326 319 315 306 298 293 287 280 277 276 267 267 280 278 278 276 270 277 279 279 280 283 282 279 291 293 298 298 297 298 296 302 299 316 312 297 289 281 259 250 263 267 262 261 265 244 244 243 242 243 243
162 174 179 197 203 215 213 205 173 127 109 116 102 67 19 350 347 344 340 324 320 307 309 309 304 305 308 313 310 309 308 333 5 342 330 319 311 306 303 300 296 297 295 289 287 280 272 271 272 272 271 266 270 281 287 301 308 299 299 292 300 297 298 294 300 294 289 281 272 280 278 274 261 256 258 269 270 265 254 262 259 252 248 246 245
169 177 188 195 212 195 186 150 122 92 107 116 101 45 353 346 339 333 339 326 320 315 305 301 293 293 297 296 294 298 328 354 358 355 342 328 315 305 300 299 300 302 301 299 296 299 298 297 297 297 300 301 300 296 292 285 276 278 282 286 290 293 295 295 290 281 281 268 255 248 268 276 273 262 265 276 284 277 264 264 252 254 256 257 257
173 160 151 151 171 178 171 131 124 126 139 129 96 18 343 338 332 341 333 331 327 320 313 306 310 300 296 295 321 10 357 332 4 352 344 332 321 317 320 320 317 312 304 302 307 309 307 304 297 290 286 284 283 284 284 284 283 281 280 275 275 270 272 272 278 291 286 282 261 252 260 268 270 270 274 271 271 276 274 262 259 252 258 268 281
171 184 186 192 183 166 162 156 139 145 155 156 127 14 333 334 327 337 332 326 326 318 321 326 322 325 312 333 84 19 357 340 357 338 336 346 335 331 326 324 322 316 312 314 307 300 293 288 284 283 281 279 276 272 268 269 265 265 272 270 261 261 265 269 273 279 282 289 283 257 252 259 257 263 267 263 265 272 273 267 262 272 296 288 294
183 195 183 172 175 159 157 164 160 150 172 177 156 322 337 327 330 331 321 326 320 324 320 321 321 334 339 0 28 29 359 351 351 340 344 348 342 334 333 329 324 321 318 321 315 306 296 288 283 276 271 271 272 271 269 262 261 254 243 251 254 248 258 261 270 272 282 285 281 261 252 255 261 250 260 261 291 243 243 252 330 15 41 69 69
177 163 165 163 161 165 171 160 156 147 174 181 167 202 180 325 340 335 326 333 318 323 332 324 328 347 348 358 19 33 6 352 347 348 346 354 344 345 340 332 325 320 322 324 317 311 311 314 309 307 303 292 290 292 284 269 257 250 239 240 247 244 252 255 262 271 272 266 268 221 247 256 244 241 232 258 253 239 84 111 104 64 58 65 67